Beaver Island, MI

8:28 PM EDT on June 28, 2017 (GMT -0400)
Beaver Island

Weather History for KSJX - November, 2013

Change the Weather History Date:

Tuesday, November 26, 2013

  Actual Average Record
Temperature  
Mean Temperature 29 °F -  
Max Temperature 37 °F 37 °F 52 °F (1960)
Min Temperature 21 °F 27 °F 10 °F (1975)
Degree Days  
Heating Degree Days 36    
Moisture  
Dew Point 21 °F    
Average Humidity 72    
Maximum Humidity 83    
Minimum Humidity 57    
Precipitation  
Precipitation 0.00 in - - ()
Sea Level Pressure  
Sea Level Pressure 29.96 in    
Wind  
Wind Speed 12 mph (NW)    
Max Wind Speed 20 mph    
Max Gust Speed 29 mph    
Visibility 9 miles    
Events Snow    
Averages and records for this station are not official NWS values.
T = Trace of Precipitation, MM = Missing Value Source: NWS Daily Summary

Daily Weather History Graph

Daily Weather History Graph

Search for Another Location

Airport or City:

Trip Planner

Search our weather history database for the weather conditions in past years. The results will help you decide how hot, cold, wet, or windy it might be!

Date:

Astronomy

Nov. 26, 2013 Rise Set
Actual Time 7:56 AM EST 5:02 PM EST
Civil Twilight 7:23 AM EST 5:35 PM EST
Nautical Twilight 6:46 AM EST 6:12 PM EST
Astronomical Twilight 6:11 AM EST 6:47 PM EST
Moon 12:39 AM EST (11/26) 1:26 PM EST (11/26)
Length of Visible Light 10h 11m
Length of Day
9h 05m
Last Quarter, 41% of the Moon is Illuminated
Nov 26
Last Quarter
Dec 2
New
Dec 9
First Quarter
Dec 17
Full
Dec 25
Last Quarter

Hourly Weather History & Observations

Time (EST) Temp. Windchill Dew Point Humidity Pressure Visibility Wind Dir Wind Speed Gust Speed Precip Events Conditions
12:16 AM 37.8 °F 28.0 °F 30.4 °F 75% 29.86 in 10.0 mi WSW 18.4 mph 24.2 mph N/A   Overcast
12:35 AM 37.8 °F 28.6 °F 29.7 °F 73% 29.86 in 10.0 mi West 16.1 mph 23.0 mph N/A   Overcast
12:56 AM 37.6 °F 28.4 °F 29.8 °F 74% 29.86 in 10.0 mi West 16.1 mph 20.7 mph N/A   Overcast
1:16 AM 37.8 °F 28.3 °F 29.8 °F 73% 29.86 in 10.0 mi West 17.3 mph 21.9 mph N/A   Overcast
1:36 AM 37.9 °F 28.5 °F 29.3 °F 71% 29.86 in 10.0 mi West 17.3 mph 25.3 mph N/A   Overcast
1:56 AM 37.9 °F 28.5 °F 29.5 °F 72% 29.86 in 10.0 mi West 17.3 mph 26.5 mph N/A   Overcast
2:16 AM 37.9 °F 28.9 °F 29.8 °F 73% 29.86 in 10.0 mi WSW 16.1 mph 26.5 mph N/A   Overcast
2:36 AM 37.8 °F 29.8 °F 29.7 °F 73% 29.87 in 10.0 mi West 12.7 mph 23.0 mph N/A   Overcast
2:56 AM 37.8 °F 29.0 °F 28.0 °F 68% 29.87 in 10.0 mi West 15.0 mph 23.0 mph N/A   Overcast
3:16 AM 37.8 °F 27.7 °F 28.4 °F 69% 29.87 in 10.0 mi West 19.6 mph - N/A   Overcast
3:36 AM 37.8 °F 30.2 °F 28.0 °F 68% 29.87 in 10.0 mi West 11.5 mph 20.7 mph N/A   Overcast
3:56 AM 37.6 °F 31.0 °F 27.3 °F 66% 29.87 in 10.0 mi West 9.2 mph 19.6 mph N/A   Overcast
4:15 AM 37.4 °F 29.3 °F 27.5 °F 67% 29.88 in 10.0 mi West 12.7 mph 17.3 mph N/A   Overcast
4:36 AM 37.0 °F 30.4 °F 27.5 °F 68% 29.88 in 10.0 mi West 9.2 mph 18.4 mph N/A   Overcast
4:55 AM 36.5 °F 29.2 °F 27.7 °F 70% 29.88 in 10.0 mi West 10.4 mph 16.1 mph N/A   Overcast
5:16 AM 36.1 °F 29.3 °F 28.0 °F 72% 29.89 in 10.0 mi WNW 9.2 mph 16.1 mph N/A   Overcast
5:36 AM 35.6 °F 30.7 °F 27.5 °F 72% 29.90 in 10.0 mi NW 5.8 mph 19.6 mph N/A   Overcast
5:55 AM 34.9 °F 29.9 °F 27.1 °F 73% 29.90 in 10.0 mi NNW 5.8 mph - N/A   Overcast
6:16 AM 34.5 °F 28.6 °F 25.9 °F 71% 29.90 in 10.0 mi NW 6.9 mph - N/A   Overcast
6:36 AM 34.3 °F 28.4 °F 23.9 °F 66% 29.90 in 10.0 mi WNW 6.9 mph - N/A   Overcast
6:56 AM 34.0 °F 27.2 °F 23.0 °F 64% 29.91 in 10.0 mi NW 8.1 mph - N/A   Overcast
7:16 AM 33.8 °F 25.3 °F 20.5 °F 58% 29.90 in 10.0 mi WNW 11.5 mph 17.3 mph N/A   Overcast
7:36 AM 33.1 °F 26.1 °F 21.7 °F 63% 29.92 in 10.0 mi NW 8.1 mph 17.3 mph N/A   Overcast
7:56 AM 32.5 °F 24.8 °F 21.2 °F 63% 29.92 in 10.0 mi NW 9.2 mph - N/A   Overcast
8:16 AM 32.4 °F 24.6 °F 23.0 °F 68% 29.92 in 10.0 mi WNW 9.2 mph - N/A   Overcast
8:36 AM 32.0 °F 24.2 °F 21.2 °F 64% 29.93 in 10.0 mi NW 9.2 mph - N/A   Overcast
8:56 AM 31.5 °F 22.9 °F 21.2 °F 66% 29.94 in 10.0 mi WNW 10.4 mph - N/A   Overcast
9:16 AM 30.7 °F 22.0 °F 21.2 °F 68% 29.95 in 10.0 mi NNW 10.4 mph 18.4 mph N/A   Overcast
9:36 AM 30.0 °F 21.1 °F 22.5 °F 73% 29.95 in 7.0 mi NW 10.4 mph - N/A Snow Light Snow
9:56 AM 29.7 °F 21.3 °F 22.5 °F 75% 29.95 in 1.8 mi WNW 9.2 mph 18.4 mph N/A Snow Light Snow
10:16 AM 29.5 °F 20.4 °F 21.7 °F 73% 29.94 in 3.0 mi WNW 10.4 mph - N/A Snow Light Snow
10:36 AM 30.2 °F 24.3 °F 19.0 °F 63% 29.94 in 10.0 mi NNW 5.8 mph 18.4 mph N/A   Overcast
10:56 AM 31.1 °F 22.4 °F 17.6 °F 57% 29.93 in 10.0 mi WNW 10.4 mph - N/A   Overcast
11:15 AM 31.3 °F 23.9 °F 18.5 °F 59% 29.93 in 10.0 mi NW 8.1 mph - N/A Snow Light Snow
11:36 AM 31.5 °F 23.5 °F 19.6 °F 62% 29.94 in 10.0 mi NW 9.2 mph 16.1 mph N/A   Overcast
11:56 AM 30.9 °F 23.5 °F 19.4 °F 62% 29.94 in 10.0 mi NW 8.1 mph - N/A   Overcast
12:15 PM 30.6 °F 21.8 °F 20.3 °F 66% 29.95 in 10.0 mi NW 10.4 mph 18.4 mph N/A   Overcast
12:36 PM 30.2 °F 21.3 °F 19.0 °F 63% 29.94 in 10.0 mi NW 10.4 mph 17.3 mph N/A   Overcast
12:56 PM 28.8 °F 20.2 °F 24.1 °F 83% 29.95 in 1.5 mi North 9.2 mph 18.4 mph N/A Snow Light Snow
1:16 PM 27.7 °F 18.8 °F 23.0 °F 83% 29.95 in 2.0 mi North 9.2 mph - N/A Snow Light Snow
1:36 PM 27.5 °F 17.4 °F 22.6 °F 82% 29.95 in 2.0 mi North 11.5 mph 16.1 mph N/A Snow Light Snow
1:56 PM 27.3 °F 19.1 °F 21.4 °F 78% 29.96 in 3.0 mi North 8.1 mph 17.3 mph N/A Snow Light Snow
2:16 PM 27.1 °F 19.7 °F 21.7 °F 80% 29.96 in 2.0 mi North 6.9 mph 16.1 mph N/A Snow Light Snow
2:36 PM 27.1 °F 21.8 °F 21.9 °F 81% 29.96 in 3.0 mi North 4.6 mph - N/A Snow Light Snow
2:55 PM 27.5 °F 22.2 °F 20.8 °F 76% 29.97 in 10.0 mi North 4.6 mph - N/A   Overcast
3:16 PM 27.1 °F 19.7 °F 19.8 °F 74% 29.97 in 4.0 mi NNW 6.9 mph - N/A Snow Light Snow
3:35 PM 26.4 °F 18.9 °F 21.6 °F 82% 29.97 in 2.0 mi North 6.9 mph 17.3 mph N/A Snow Light Snow
3:56 PM 27.0 °F 20.5 °F 21.0 °F 78% 29.98 in 5.0 mi NNW 5.8 mph - N/A Snow Light Snow
4:16 PM 26.6 °F 15.7 °F 20.8 °F 79% 29.99 in 4.0 mi NNW 12.7 mph 18.4 mph N/A Snow Light Snow
4:36 PM 26.4 °F 16.6 °F 18.1 °F 71% 30.00 in 10.0 mi NNW 10.4 mph 23.0 mph N/A   Overcast
4:56 PM 26.2 °F 15.8 °F 18.9 °F 74% 30.00 in 10.0 mi NNW 11.5 mph 19.6 mph N/A   Overcast
5:16 PM 25.7 °F 14.0 °F 17.6 °F 71% 30.01 in 10.0 mi North 13.8 mph 19.6 mph N/A   Overcast
5:36 PM 25.3 °F 14.1 °F 17.2 °F 71% 30.03 in 10.0 mi NNW 12.7 mph 21.9 mph N/A   Overcast
5:56 PM 24.8 °F 12.9 °F 17.1 °F 72% 30.03 in 10.0 mi NW 13.8 mph 23.0 mph N/A   Overcast
6:16 PM 24.4 °F 11.9 °F 16.2 °F 71% 30.04 in 10.0 mi NNW 15.0 mph 26.5 mph N/A   Overcast
6:36 PM 23.9 °F 12.3 °F 15.4 °F 70% 30.05 in 10.0 mi NW 12.7 mph 25.3 mph N/A   Overcast
6:56 PM 23.5 °F 11.3 °F 15.6 °F 72% 30.05 in 10.0 mi NW 13.8 mph 28.8 mph N/A   Overcast
7:16 PM 23.0 °F 10.6 °F 15.1 °F 72% 30.05 in 10.0 mi NW 13.8 mph 25.3 mph N/A   Overcast
7:36 PM 22.6 °F 11.3 °F 14.4 °F 71% 30.05 in 10.0 mi NW 11.5 mph 21.9 mph N/A   Overcast
7:55 PM 22.5 °F 10.5 °F 14.7 °F 72% 30.05 in 10.0 mi NW 12.7 mph 23.0 mph N/A   Overcast
8:16 PM 22.1 °F 9.5 °F 13.8 °F 70% 30.05 in 10.0 mi NW 13.8 mph 23.0 mph N/A   Overcast
8:36 PM 22.1 °F 10.0 °F 13.8 °F 70% 30.05 in 10.0 mi NW 12.7 mph 20.7 mph N/A   Overcast
8:56 PM 22.1 °F 9.5 °F 14.9 °F 74% 30.05 in 10.0 mi NW 13.8 mph 19.6 mph N/A   Overcast
9:16 PM 21.7 °F 10.8 °F 15.8 °F 78% 30.05 in 10.0 mi NW 10.4 mph 16.1 mph N/A   Overcast
9:36 PM 21.7 °F 9.6 °F 16.2 °F 79% 30.05 in 10.0 mi NW 12.7 mph 20.7 mph N/A   Overcast
9:56 PM 21.2 °F 10.1 °F 15.4 °F 78% 30.05 in 10.0 mi NW 10.4 mph 18.4 mph N/A   Overcast
10:16 PM 21.6 °F 9.3 °F 15.8 °F 78% 30.04 in 10.0 mi NW 12.7 mph 19.6 mph N/A   Mostly Cloudy
10:36 PM 22.1 °F 10.0 °F 15.6 °F 76% 30.04 in 10.0 mi NW 12.7 mph 19.6 mph N/A   Mostly Cloudy
10:56 PM 22.5 °F 12.4 °F 16.9 °F 79% 30.05 in 10.0 mi NW 9.2 mph 17.3 mph N/A   Mostly Cloudy
11:15 PM 22.5 °F 11.1 °F 16.9 °F 79% 30.05 in 10.0 mi NW 11.5 mph 20.7 mph N/A   Mostly Cloudy
11:36 PM 22.1 °F 12.8 °F 16.5 °F 79% 30.05 in 10.0 mi NW 8.1 mph 18.4 mph N/A   Mostly Cloudy
11:56 PM 22.6 °F 11.9 °F 16.5 °F 77% 30.05 in 10.0 mi NW 10.4 mph 20.7 mph N/A   Mostly Cloudy